{"data":{"norad_id":59332,"epoch":"2026-09-21T02:21:20.078784Z","epoch_age_seconds":110564,"freshness":"FRESH","line1":"1 59332U 24057N   26264.09814906  .00000969  00000+0  44724-4 0  9995","line2":"2 59332  42.9998 174.8071 0000782 276.5201  83.5562 15.27566657139599","mean_motion":15.27566657,"eccentricity":7.82e-5,"inclination_deg":42.9998,"raan_deg":174.8071,"arg_perigee_deg":276.5201,"mean_anomaly_deg":83.5562,"bstar":4.4724e-5,"rev_number":13959,"period_min":94.267572115513,"perigee_km":482.55250219548,"apogee_km":483.62559794971,"semimajor_km":6861.2260500726,"source":"CELESTRAK","updated_at":"2026-09-22T09:00:48.900272Z"}}